#timestamp,LO_Frequency,Hit,StdDev 
1576900815.5,286047001.1,N
1576900835.4,286047000.0,N
1576900855.2,286046998.8,N
1576900875.1,286047000.6,N
1576900876.0,286047000.6,N
1576900895.8,286046998.1,N
1576900915.6,286047002.4,N
1576900935.5,286047003.8,N
1576900955.3,286047003.0,N
1576900975.1,286047003.5,N
1576900995.9,286047006.0,N
1576901015.7,286047003.1,N
1576901035.6,286047003.1,N
1576901055.4,286047005.4,N
1576901075.2,286047001.4,N
1576901095.1,286047003.1,N
1576901096.0,286047003.1,N
1576901115.8,286047003.0,N
1576901135.7,286047002.2,N
1576901155.5,286047000.2,N
1576901175.3,286047001.3,N
1576901195.2,286046999.8,N
1576901215.0,286047000.6,N
1576901215.9,286047000.6,N
1576901235.7,286047000.6,N
1576901255.6,286047002.8,N
1576901275.4,286047002.1,N
1576901295.3,286047004.0,N
1576901315.1,286047001.8,N
1576901316.0,286047001.8,N
1576901335.8,286047005.9,Y
1576901355.7,286047000.8,P
1576901375.5,286047000.5,N
1576901395.4,286047000.6,N
1576901415.2,286046999.5,N
1576901435.0,286046997.7,Y
1576901435.9,286046997.7,P
1576901455.8,286046997.5,N
1576901475.6,286046996.6,N
1576901495.4,286046997.1,N
1576901515.3,286046997.3,N
1576901535.1,286046999.3,N
1576901555.9,286046999.2,N
1576901575.7,286047000.4,N
1576901595.5,286046999.3,N
1576901615.4,286046998.4,N
1576901635.2,286047000.4,N
1576901655.0,286046998.8,N
1576901655.9,286046998.8,N
1576901675.8,286046997.1,N
1576901695.6,286046996.7,N
1576901715.5,286046997.1,N
1576901735.3,286046997.7,N
1576901755.1,286046993.4,Y
1576901775.9,286046997.3,P
1576901795.7,286046998.0,P
1576901815.6,286046996.5,P
1576901835.4,286046999.0,N
1576901855.2,286047002.8,Y
1576901875.1,286047003.6,P
1576901876.0,286047003.6,N
1576901895.8,286047005.6,N
1576901915.6,286047004.8,N
1576901935.5,286047006.1,N
1576901955.3,286047005.0,N
1576901975.2,286047006.0,N
1576901995.9,286047005.1,N
1576902015.7,286047002.9,N
1576902035.6,286047003.5,N
1576902055.4,286047001.4,N
1576902075.2,286047000.4,N
1576902095.1,286047000.7,N
1576902096.0,286047000.7,N
1576902115.8,286047001.9,N
1576902135.7,286047002.4,N
1576902155.5,286047002.3,N
1576902175.3,286047000.0,N
1576902195.2,286047000.2,N
1576902215.0,286047002.4,N
1576902215.9,286047002.4,N
1576902235.8,286047004.0,N
1576902255.6,286047002.6,N
1576902275.4,286047002.6,N
1576902295.3,286047002.2,N
1576902315.1,286047005.5,N
1576902335.8,286047004.6,N
1576902355.7,286047005.4,N
1576902375.5,286047006.0,N
1576902395.4,286047003.3,N
1576902415.2,286047001.4,N
1576902435.0,286047001.3,N
1576902435.9,286047001.3,N
1576902455.8,286047004.2,N
1576902475.6,286047003.2,N
1576902495.4,286047003.5,N
1576902515.3,286047001.6,N
1576902535.1,286047001.3,N
1576902555.9,286047001.9,N
1576902575.7,286047003.7,N
1576902595.5,286047005.3,Y
1576902615.4,286047002.5,P
1576902635.2,286047002.2,P
1576902655.1,286047002.0,P
1576902656.0,286047002.0,Y
1576902675.8,286047000.9,P
1576902695.6,286047002.7,P
1576902715.5,286047000.1,N
1576902735.3,286047001.1,N
1576902755.1,286046998.6,N
1576902775.9,286046996.9,N
1576902795.7,286046995.0,N
1576902815.6,286046997.0,N
1576902835.4,286046999.6,N
1576902855.2,286046997.6,N
1576902875.1,286046998.0,N
1576902876.0,286046998.0,N
1576902895.8,286046997.6,N
1576902915.7,286046996.2,N
1576902935.5,286046995.4,N
1576902955.3,286046996.1,N
1576902975.2,286046997.9,N
1576902995.0,286046995.8,N
1576902995.9,286046995.8,N
1576903015.7,286046995.2,N
1576903035.6,286046997.6,N
1576903055.4,286046998.0,N
1576903075.3,286046998.0,N
1576903095.1,286046997.7,N
1576903096.0,286046997.7,N
1576903115.8,286046995.0,N
1576903135.7,286046994.9,N
1576903155.5,286046995.3,N
1576903175.3,286046997.4,N
1576903195.2,286046995.4,N
1576903215.0,286046997.4,N
1576903215.9,286046997.4,N
1576903235.8,286046998.0,N
1576903255.6,286046996.0,N
1576903275.4,286046995.0,Y
1576903295.3,286046999.1,P
1576903315.1,286046998.8,N
1576903335.9,286046999.0,N
1576903355.7,286046999.6,N
1576903375.5,286046996.7,Y
1576903395.4,286046998.4,P
1576903415.2,286046998.4,P
1576903435.0,286046996.6,P
1576903436.0,286046996.6,Y
1576903455.8,286047000.5,P
1576903475.6,286047000.3,N
1576903495.5,286047000.4,N
1576903515.3,286047001.0,N
1576903535.1,286046998.4,N
1576903555.9,286047001.1,N
1576903575.7,286047000.3,N
1576903595.6,286047001.0,N
1576903615.4,286047000.6,N
1576903635.2,286047000.3,N
1576903655.1,286046999.7,N
1576903656.0,286046999.7,N
1576903675.8,286047002.5,N
1576903695.7,286047002.3,N
1576903715.5,286047002.7,N
1576903735.3,286047002.3,N
1576903755.2,286047002.2,N
1576903775.0,286047004.4,Y
1576903775.9,286047004.4,P
1576903795.7,286047003.7,N
1576903815.6,286047005.9,P
1576903835.4,286047009.0,Y
1576903855.3,286047004.1,P
1576903875.1,286047006.0,P
1576903895.8,286047005.2,P
1576903915.7,286047003.1,Y
1576903935.5,286046998.2,P
1576903955.4,286046998.5,N
1576903975.2,286046999.6,N
1576903995.0,286046997.1,N
1576903995.9,286046997.1,N
1576904015.8,286046999.1,N
1576904035.6,286046998.9,N
1576904055.4,286046999.1,N
1576904075.3,286046999.2,N
1576904095.1,286046995.2,N
1576904115.9,286046996.8,N
1576904135.7,286046999.4,N
1576904155.5,286046997.1,N
1576904175.4,286046996.0,N
1576904195.2,286046993.7,N
1576904215.1,286046995.5,N
1576904216.0,286046995.5,N
1576904235.8,286046995.9,N
1576904255.6,286046995.2,N
1576904275.5,286046995.7,N
1576904295.3,286046996.3,N
1576904315.2,286046994.6,N
1576904335.9,286046994.2,N
1576904355.7,286046994.6,N
1576904375.6,286046992.5,Y
1576904395.4,286046995.6,P
